CAPE
20 12 6 10 8 7 5 5 3 2 0 0 0 3 15 6 5 3 2 0 0 0 0 0 0 0 0 0 0 0 0 0 0 0 0 0 2 0
15 22 33 26 25 19 5 2 1 8 3 0 0 0 0 0 0 0 0 0 0 0 0 0 0 0 0 0 0 0 0 0 0 0 0 0 4 1
7 13 9 7 1 1 3 14 8 2 1 0 0 0 0 3 1 1 0 1 4 0 0 0 0 0 0 0 0 0 0 0 0 0 0 0 0 0
9 3 3 2 0 1 2 2 3 4 8 6 2 0 0 1 2 4 1 1 8 1 0 0 0 0 0 0 0 0 0 0 0 0 0 0 0 0
1 2 2 1 0 1 1 2 2 2 1 4 1 1 1 3 1 3 3 9 3 2 0 0 0 0 0 0 0 0 0 0 0 0 0 0 0 0
0 1 0 0 1 1 2 3 2 2 1 3 4 6 5 4 7 11 11 15 10 2 3 1 1 0 0 0 0 0 0 0 0 0 0 0 0 0
0 0 0 2 0 0 0 0 0 0 3 7 9 7 4 0 0 1 3 3 0 1 1 0 2 3 7 1 0 0 0 0 0 0 0 0 0 0
0 0 5 7 2 1 0 0 0 2 1 0 2 4 4 5 5 3 5 9 13 14 8 5 13 7 7 12 6 0 0 0 0 0 0 0 0 0
3 5 5 5 1 4 0 1 3 1 1 2 3 1 3 2 3 3 5 9 13 9 8 13 17 10 21 8 6 0 0 0 0 0 0 0 0 0
2 4 3 1 2 2 3 7 9 7 11 1 0 0 3 14 18 12 14 10 13 14 16 13 5 8 11 19 9 0 0 0 0 0 0 0 0 0
4 12 15 13 14 11 4 3 2 2 3 0 0 0 0 0 0 0 2 1 8 6 5 11 2 8 7 8 11 3 0 0 0 0 0 0 0 0
9 7 4 3 0 0 1 2 1 0 0 0 1 0 1 1 0 0 1 6 2 0 0 9 14 14 18 6 3 1 0 0 0 0 0 0 0 0
3 3 4 9 0 0 0 1 2 2 1 1 1 0 1 4 5 4 2 3 2 1 0 2 13 17 15 12 2 6 6 15 5 4 0 0 0 0
3 2 18 0 1 0 1 0 0 0 1 0 3 3 5 16 24 27 21 13 6 5 5 0 0 8 17 31 17 0 3 0 6 3 1 9 0 0
5 1 0 0 0 0 4 0 0 0 4 3 4 3 3 5 13 14 6 9 10 11 5 6 3 1 16 17 19 8 23 9 9 3 0 0 1 0
0 0 3 0 1 3 9 12 8 7 2 3 3 2 5 4 10 5 2 14 10 4 1 0 0 0 0 0 6 3 0 10 7 3 1 1 1 4
0 2 1 0 0 3 5 5 10 4 4 1 2 3 1 2 6 9 2 0 3 13 13 4 0 0 0 2 5 4 2 0 0 8 0 0 0 0
0 1 1 0 0 1 2 2 2 2 1 2 3 1 0 2 1 0 6 2 1 2 2 6 0 1 0 0 0 0 1 1 2 4 1 1 2 13
1 1 0 0 0 0 1 1 2 3 3 2 2 2 2 0 0 2 0 2 2 9 6 8 4 8 1 0 0 0 1 1 4 2 0 1 1 1
0 1 0 0 0 0 0 0 0 2 2 1 4 2 2 2 4 1 0 2 1 1 6 8 1 1 2 0 1 0 0 0 0 0 1 0 0 0
1 1 0 0 0 0 0 1 0 1 1 0 2 1 1 3 5 2 1 1 3 3 5 2 0 0 0 0 1 1 0 1 0 0 0 0 1 0
0 0 0 0 0 0 0 1 0 1 1 1 0 0 1 7 4 5 3 4 4 5 5 7 3 1 2 2 1 0 1 0 0 0 0 0 0 1
0 0 0 0 0 0 0 0 0 0 0 1 0 0 1 2 1 5 4 2 4 3 4 5 3 1 1 0 0 0 0 0 0 0 0 0 1 1
CIN
0 0 0 0 0 0 0 0 0 0 -1 0 0 -1 -1 -1 0 -1 -3 0 0 0 0 0 0 0 0 0 0 0 0 0 0 0 0 0 0 0
0 0 0 0 0 -1 -1 -1 -1 0 0 0 0 0 0 0 0 0 -1 0 0 0 0 0 0 0 0 0 0 0 0 0 0 0 0 0 0 0
-1 -2 -2 -2 -2 -2 -3 -2 -2 -4 0 0 0 0 0 0 -1 -1 -1 0 -1 -1 0 0 0 0 0 0 0 0 0 0 0 0 0 0 0 0
-3 -5 -5 -3 -2 -3 -3 -3 -3 -3 -2 -1 -2 -3 0 0 -2 -1 -1 -1 0 -1 -9 0 0 0 0 0 0 0 0 0 0 0 0 0 0 0
-2 -4 -3 -4 -1 -3 -3 -2 -3 -4 -3 -2 -1 -1 -1 -1 -1 -1 0 0 -2 -2 0 0 0 0 0 0 0 0 0 0 0 0 0 0 0 0
0 -1 0 0 -4 -3 -4 -3 -4 -2 -3 -1 0 0 -1 -2 0 0 0 0 0 -3 -3 -4 -2 0 0 0 0 0 0 0 0 0 0 0 0 0
0 0 -2 -4 0 0 0 0 0 -2 -1 0 0 -1 -2 -1 -1 -3 -5 -5 -1 -5 -7 -6 -2 -1 -2 -6 0 0 0 0 0 0 0 0 0 0
0 -2 -2 -3 -3 -4 0 0 0 -1 -2 -4 -2 -1 -2 -2 -2 -4 0 0 0 -3 -2 -2 -3 -1 -1 -1 -3 0 0 0 0 0 0 0 0 0
-4 -3 -5 -4 -4 -3 -3 -10 -5 -1 -8 -2 -1 -1 -2 -3 -3 -2 -1 0 -1 -2 -1 0 0 -1 -1 -1 -5 0 0 0 0 0 0 0 0 0
-2 -3 -4 -3 -1 -2 -2 -2 -2 -2 -1 -1 -1 0 -1 0 -1 -2 -1 0 0 -1 -1 0 -1 -1 0 -1 -3 -7 0 0 0 0 0 0 0 0
-1 -2 -1 -2 -1 -1 -2 -2 -1 -3 -1 -1 0 0 0 0 0 0 0 0 0 -3 0 -1 -1 0 -1 0 -1 -5 0 0 0 0 0 0 0 0
-2 -2 -1 -1 0 0 0 0 0 0 0 -1 -1 -1 -2 0 0 0 0 0 0 0 0 0 0 -1 0 -2 -10 0 0 0 0 0 0 0 0 0
-2 -2 -2 -3 0 0 0 -1 -1 -1 -1 -2 0 0 0 0 0 0 0 0 0 0 0 0 0 -1 -1 -1 -5 -2 -4 -3 -2 -3 -2 0 0 0
-1 0 0 0 0 0 0 0 0 0 0 0 0 -1 0 0 0 0 0 0 0 0 -1 0 0 0 -1 0 -1 -1 -3 -4 -4 0 -9 -1 0 0
0 0 0 0 0 0 0 0 0 0 0 0 0 -1 -2 -1 0 0 -1 0 0 -1 -1 0 -1 -1 0 0 -1 -1 -1 -5 -3 0 0 -9 -1 0
0 0 0 0 0 0 -1 0 0 0 0 0 0 -1 -1 -1 -1 -1 -1 0 -2 -2 -3 0 0 0 0 0 0 -1 0 0 -1 -1 -4 -1 -2 -2
0 -1 -1 -1 -1 0 -1 -1 -1 -1 -1 -1 -1 0 0 -1 -2 0 -5 -3 0 0 -1 -2 0 0 0 0 0 0 -1 -2 -1 -2 0 -1 0 0
0 0 0 0 0 0 0 -1 -1 -1 -1 -1 -1 -1 0 0 0 0 -3 0 -1 -1 0 -1 -3 0 0 0 0 0 0 0 -1 -3 -6 -1 0 -1
-1 -1 0 0 0 0 -1 -1 -1 -1 -1 -1 -1 -1 0 0 0 0 0 0 0 -1 0 0 0 0 0 0 0 0 0 0 -1 -1 0 -1 -1 0
-1 0 0 -1 -1 0 -2 -2 -1 -1 -1 -1 -1 -1 -1 -1 0 -1 -1 0 0 -1 0 0 0 0 0 0 0 0 0 0 0 0 0 0 0 0
-2 -1 -1 -1 0 0 -2 -2 -1 -1 -1 0 -1 -2 -1 -1 0 0 -1 -1 -1 0 0 0 0 0 0 0 0 0 0 0 0 0 0 0 0 0
-1 0 0 -1 -1 -2 -2 -1 -1 -2 -2 -2 -1 -1 -2 -1 0 -1 -1 0 0 -1 0 -1 -1 -1 -1 0 0 0 0 0 0 0 0 0 0 0
0 0 0 0 -1 0 -1 -2 0 -3 -3 -3 -3 0 -1 -1 -2 -1 -1 -1 -1 -1 -1 0 -1 -1 -1 0 0 0 0 0 0 0 0 0 0 0
Wind_Speed
29 27 28 27 27 27 27 29 33 38 41 36 36 31 30 34 35 35 36 36 36 37 37 37 38 40 42 43 44 44 42 40 40 42 43 44 45 44
29 29 29 28 28 27 26 26 25 29 38 34 35 35 34 36 36 34 35 37 38 37 37 38 41 42 44 46 47 46 45 43 42 42 43 44 44 45
29 30 32 32 34 34 31 29 30 32 38 38 37 35 37 38 37 37 38 39 40 41 41 42 41 42 44 45 46 45 47 47 46 45 45 45 46 46
32 34 36 36 37 35 34 35 36 38 41 45 42 41 41 40 40 41 39 40 40 41 39 39 42 41 42 44 44 46 48 50 51 50 49 48 47 48
36 37 36 36 37 37 37 37 38 38 39 42 44 41 41 39 41 41 41 40 40 41 41 42 43 44 44 44 45 47 50 52 53 53 52 51 50 49
35 34 35 35 36 36 36 37 37 37 37 38 39 39 38 37 37 39 40 38 40 38 38 39 40 41 43 45 47 48 49 50 52 52 52 52 52 51
37 37 36 35 36 38 38 37 37 38 38 39 41 41 40 39 40 40 42 41 41 40 41 40 40 39 39 40 43 45 47 47 48 49 52 53 53 53
39 39 39 38 37 34 32 32 32 37 39 39 41 42 41 39 38 39 40 41 42 35 39 41 40 41 41 40 41 39 39 42 44 44 46 48 49 51
37 38 40 39 39 39 37 37 35 32 30 33 38 37 38 37 39 39 39 39 41 37 37 40 36 40 38 38 38 42 43 42 41 41 44 46 48 50
36 37 39 40 40 38 38 38 36 33 30 27 25 28 33 35 35 36 38 39 40 38 36 42 37 39 37 37 38 39 41 44 44 45 46 47 48 49
36 36 37 38 39 38 36 37 37 36 33 28 26 41 45 44 39 40 41 40 38 35 32 37 37 39 38 38 37 39 39 40 42 44 45 47 48 47
35 36 36 38 39 37 34 34 37 37 34 37 37 37 37 14 10 10 22 30 35 38 33 35 36 35 37 34 34 35 35 36 38 40 42 44 44 44
37 36 34 33 32 33 34 35 36 35 34 32 28 24 20 16 12 10 11 12 14 15 30 30 31 31 33 34 32 29 28 29 28 30 37 41 41 42
38 36 33 33 32 31 30 30 30 30 27 25 23 21 18 13 10 8 9 8 7 15 28 25 27 30 32 33 33 31 30 31 29 28 30 34 38 39
25 28 26 24 25 24 25 26 25 23 22 22 21 19 17 15 11 6 5 5 3 5 18 23 24 28 30 32 33 30 30 30 27 27 24 29 31 34
22 19 19 20 20 21 20 20 20 21 20 20 19 17 15 12 7 6 5 6 5 4 2 6 17 25 30 32 33 33 31 30 25 23 22 23 28 31
19 17 19 19 18 17 17 17 17 18 19 19 18 18 18 15 7 10 10 10 8 7 5 5 3 15 24 26 29 29 30 31 30 24 19 19 23 27
17 18 18 17 16 16 15 16 16 17 18 19 19 20 20 19 4 6 11 11 10 9 8 8 8 7 16 24 24 29 28 28 29 25 20 20 24 24
18 18 17 17 16 16 16 17 17 17 17 18 20 21 22 21 16 16 13 14 14 11 7 6 9 6 4 24 23 22 25 27 28 28 21 21 25 25
19 18 18 18 18 18 18 18 19 19 19 19 20 21 22 22 22 21 19 16 14 10 12 13 12 10 8 23 23 20 20 25 26 28 25 19 20 17
21 20 19 19 20 20 20 20 20 20 21 20 21 21 22 23 22 23 22 20 18 16 14 13 9 7 6 9 21 18 20 20 21 23 23 20 19 20
21 21 21 20 21 21 21 21 21 21 21 22 22 22 22 23 23 24 24 23 21 18 16 12 11 10 10 9 10 20 19 19 18 16 17 17 19 19
23 22 21 21 21 20 21 21 21 21 22 22 22 22 23 23 24 24 24 24 24 23 20 17 13 14 13 11 11 18 18 18 18 15 16 15 14 13
Wind_Direction
322 319 316 314 312 310 306 302 296 289 285 286 284 286 282 280 283 283 282 280 277 277 275 276 275 275 274 274 275 275 275 276 276 274 272 271 269 270
326 323 319 316 313 311 307 304 301 297 290 292 289 287 287 285 286 286 283 282 280 280 276 276 276 275 275 274 273 272 273 274 275 275 273 271 270 269
320 317 314 312 309 307 305 302 297 291 287 289 289 289 286 285 286 286 285 283 281 279 276 273 275 275 275 274 274 271 270 272 272 273 273 272 270 269
319 316 312 310 307 306 304 301 298 293 290 286 286 288 287 287 286 285 286 283 283 282 280 277 274 274 276 275 274 272 271 271 271 270 271 271 270 269
317 314 312 310 307 304 303 300 298 296 293 290 287 289 288 289 287 286 284 284 284 284 282 280 277 275 275 275 274 273 273 272 270 269 268 268 268 268
318 315 313 311 309 307 305 301 300 299 297 294 292 291 291 290 288 287 285 285 283 285 285 283 281 278 275 275 275 275 273 272 270 269 267 266 265 265
316 313 311 309 307 305 303 302 300 297 296 293 290 289 290 289 287 288 286 286 285 286 285 284 283 282 281 278 276 276 273 271 270 269 267 266 264 263
315 311 309 308 306 306 304 302 301 297 294 293 290 288 289 291 291 288 287 285 284 286 284 282 282 281 280 280 278 281 282 275 271 270 268 266 264 263
318 314 310 307 306 303 302 301 300 300 298 297 292 293 293 293 291 289 288 286 284 287 287 284 285 282 281 281 279 277 277 276 274 271 269 267 265 263
321 316 310 306 304 302 299 298 298 299 301 300 298 300 298 297 295 292 289 288 286 285 286 283 287 284 284 281 279 279 277 274 273 271 269 267 265 263
322 318 313 307 302 300 299 294 293 294 298 304 305 266 275 287 293 289 285 285 286 287 287 285 286 285 285 281 280 279 277 276 273 271 269 266 264 263
326 320 316 306 294 293 293 291 284 289 297 285 285 287 274 238 250 275 296 286 285 285 287 287 286 287 285 284 282 279 279 277 275 273 269 267 263 262
325 321 316 308 300 291 285 280 277 280 272 267 255 244 234 225 215 207 208 214 222 279 291 290 290 289 284 283 286 286 286 284 283 282 274 267 262 259
314 298 292 287 282 278 272 269 270 266 252 248 244 242 235 220 208 206 210 217 257 298 295 296 294 287 285 282 284 287 283 281 284 289 286 274 261 257
275 283 275 271 273 269 270 268 259 244 246 251 251 244 239 233 224 201 186 189 205 297 307 299 297 292 286 283 283 287 286 282 285 287 294 279 267 258
279 269 264 268 269 270 274 269 261 259 255 252 255 242 234 229 189 111 101 88 103 129 62 328 309 295 287 282 282 281 284 281 287 292 294 290 271 261
275 267 280 284 280 280 280 278 278 271 269 272 266 265 269 253 116 83 82 81 77 83 107 110 69 320 294 289 281 279 281 281 278 286 292 296 278 266
275 288 290 290 288 286 287 291 291 290 282 277 277 281 287 281 174 126 76 77 71 76 82 83 80 65 324 294 284 277 280 284 278 281 284 288 283 274
289 289 289 289 289 289 291 295 295 294 291 289 287 289 299 292 31 38 56 56 59 66 83 102 86 85 62 297 294 289 285 279 277 275 282 287 281 278
295 288 289 290 292 297 297 296 296 298 302 301 305 304 310 319 350 7 26 42 51 68 63 67 66 65 61 310 296 301 296 285 279 272 278 287 288 285
298 295 294 295 299 301 302 303 302 307 310 311 316 316 319 331 350 356 10 22 38 49 55 53 66 91 103 27 291 301 309 306 293 283 284 283 288 282
298 300 301 301 304 306 306 306 307 313 316 317 316 317 321 336 342 347 353 4 17 38 49 65 73 87 95 115 330 296 308 317 315 308 302 297 290 287
303 303 302 303 307 306 309 309 309 312 316 318 318 316 322 331 331 339 344 350 358 8 30 47 66 76 82 103 121 315 306 312 313 322 315 311 311 308